Terminal Aerodrome Forecast
Issued by NWS Binghamton, NY

Home | Current Version | Previous Version | Text Only | Print | Product List | Glossary On
Versions: 1 2 3 4 5 6 7 8 9 10 11 12 13 14 15 16 17 18
000
FTUS41 KBGM 041120
TAFAVP
TAF
KAVP 041120Z 0412/0512 11003KT P6SM SKC
     FM041500 22010G20KT P6SM FEW080
     FM050500 23002KT P6SM OVC050=

USA.gov is the U.S. government's official web portal to all federal, state and local government web resources and services.